This demonstration page uses our WeatherBlox Daily Observations layout. Learn more.

39.29038, -76.61219

Hourly Observations for July 5, 2018

Temp ( °F °C ) Dew Point ( °F °C ) Humidity (%) Winds ( mph kmh ) Pressure ( in mb ) Visibility ( mi km ) Precip ( " mm )
12:54 am 00:54 undefined 83 28.3 76 24.4 79 79 undefined N/A 30.28 1026 N/A 0 0
1:54 am 01:54 undefined 82 27.8 76 24.4 82 82 undefined N/A 30.29 1026 N/A 0 0
2:54 am 02:54 undefined 82 27.8 76 24.4 82 82 undefined N/A 30.28 1025 N/A 0 0
3:54 am 03:54 undefined 82 27.8 76 24.4 82 82 undefined N/A 30.27 1025 N/A 0 0
4:54 am 04:54 undefined 82 27.8 76 24.4 82 82 undefined N/A 30.27 1025 N/A 0 0
5:54 am 05:54 undefined 82 27.8 76 24.4 82 82 undefined N/A 30.28 1025 N/A 0 0
6:54 am 06:54 undefined 82 27.8 77 25 85 85 undefined N/A 30.29 1026 N/A 0 0
7:54 am 07:54 undefined 82 27.8 77 25 85 85 undefined N/A 30.29 1026 N/A 0 0
8:54 am 08:54 undefined 84 28.9 77 25 80 80 undefined N/A 30.29 1026 N/A 0 0
9:54 am 09:54 undefined 86 30 76 24.4 72 72 undefined N/A 30.29 1026 N/A 0 0
10:54 am 10:54 undefined 89 31.7 76 24.4 65 65 undefined N/A 30.28 1025 N/A 0 0
11:54 am 11:54 undefined 91 32.8 74 23.3 57 57 undefined N/A 30.27 1025 N/A 0 0
12:54 pm 12:54 undefined 89 31.7 74 23.3 61 61 undefined N/A 30.27 1025 N/A 0 0
1:54 pm 13:54 undefined 90 32.2 75 23.9 62 62 undefined N/A 30.25 1024 N/A 0 0
2:54 pm 14:54 undefined 86 30 76 24.4 72 72 undefined N/A 30.24 1024 N/A 0 0
3:54 pm 15:54 undefined 87 30.6 75 23.9 67 67 undefined N/A 30.2 1023 N/A 0 0
4:54 pm 16:54 undefined 89 31.7 75 23.9 63 63 undefined N/A 30.19 1022 N/A 0 0
5:54 pm 17:54 undefined 90 32.2 75 23.9 62 62 undefined N/A 30.18 1022 N/A 0 0
6:54 pm 18:54 undefined 89 31.7 75 23.9 63 63 undefined N/A 30.17 1022 N/A 0 0
7:54 pm 19:54 undefined 87 30.6 75 23.9 67 67 undefined N/A 30.16 1021 N/A 0 0
8:54 pm 20:54 undefined 86 30 75 23.9 70 70 undefined N/A 30.16 1021 N/A 0 0
9:54 pm 21:54 undefined 85 29.4 75 23.9 72 72 undefined N/A 30.18 1022 N/A 0 0
10:54 pm 22:54 undefined 84 28.9 76 24.4 77 77 undefined N/A 30.17 1022 N/A 0 0
11:54 pm 23:54 undefined 83 28.3 76 24.4 79 79 undefined N/A 30.16 1022 N/A 0 0

Powered by AerisWeather